TimeMDT,TemperatureF,Dew PointF,Humidity,Sea Level PressureIn,VisibilityMPH,Wind Direction,Wind SpeedMPH,Gust SpeedMPH,PrecipitationIn,Events,Conditions,WindDirDegrees,DateUTC
12:52 AM,75.9,30.0,19,29.82,10.0,WNW,9.2,-,N/A,,Clear,290,2013-07-01 06:52:00
1:52 AM,69.1,30.0,23,29.84,10.0,West,5.8,-,N/A,,Clear,270,2013-07-01 07:52:00
2:52 AM,66.0,39.0,37,29.85,10.0,South,5.8,-,N/A,,Clear,180,2013-07-01 08:52:00
3:52 AM,64.9,30.9,28,29.85,10.0,West,4.6,-,N/A,,Clear,260,2013-07-01 09:52:00
4:52 AM,63.0,30.9,30,29.86,10.0,West,8.1,-,N/A,,Clear,280,2013-07-01 10:52:00
5:52 AM,64.9,33.1,31,29.87,10.0,Calm,Calm,-,N/A,,Clear,0,2013-07-01 11:52:00
6:52 AM,60.1,32.0,35,29.89,10.0,Calm,Calm,-,N/A,,Clear,0,2013-07-01 12:52:00
7:52 AM,71.1,33.1,25,29.90,10.0,Calm,Calm,-,N/A,,Clear,0,2013-07-01 13:52:00
8:52 AM,73.9,37.0,26,29.91,10.0,South,4.6,-,N/A,,Clear,170,2013-07-01 14:52:00
9:52 AM,84.9,34.0,16,29.90,10.0,Variable,3.5,-,N/A,,Clear,0,2013-07-01 15:52:00
10:52 AM,91.9,28.0,10,29.90,10.0,North,4.6,-,N/A,,Clear,10,2013-07-01 16:52:00
11:52 AM,96.1,28.9,9,29.89,10.0,North,8.1,-,N/A,,Clear,10,2013-07-01 17:52:00
12:52 PM,99.0,28.0,8,29.87,10.0,North,8.1,19.6,N/A,,Clear,10,2013-07-01 18:52:00
1:52 PM,100.0,19.0,5,29.86,10.0,North,10.4,17.3,N/A,,Clear,10,2013-07-01 19:52:00
2:52 PM,102.0,15.1,4,29.85,10.0,NW,9.2,18.4,N/A,,Clear,320,2013-07-01 20:52:00
3:52 PM,100.9,16.0,5,29.83,10.0,Variable,4.6,16.1,N/A,,Clear,0,2013-07-01 21:52:00
4:52 PM,102.0,10.9,4,29.81,10.0,North,11.5,25.3,N/A,,Clear,360,2013-07-01 22:52:00
5:52 PM,102.9,7.0,4,29.78,10.0,NNE,15.0,25.3,N/A,,Clear,20,2013-07-01 23:52:00
6:52 PM,102.0,7.0,4,29.78,10.0,North,13.8,21.9,N/A,,Clear,10,2013-07-02 00:52:00
7:52 PM,99.0,12.9,4,29.78,10.0,NNE,13.8,20.7,N/A,,Clear,20,2013-07-02 01:52:00
8:52 PM,90.0,19.9,8,29.79,10.0,NNE,6.9,-,N/A,,Clear,20,2013-07-02 02:52:00
9:52 PM,82.0,21.9,11,29.81,10.0,North,5.8,-,N/A,,Clear,350,2013-07-02 03:52:00
10:52 PM,78.1,23.0,13,29.83,10.0,NNW,8.1,-,N/A,,Clear,330,2013-07-02 04:52:00
11:52 PM,79.0,25.0,14,29.83,10.0,NNW,10.4,-,N/A,,Clear,340,2013-07-02 05:52:00